This is the latest recevied weather packets stored in our database for station/object W1GK. If no packets are shown the sender has not sent any weather packets the latest 10 day(s).
| Time | Temp. | Humidity | Pressure | Rain* | Wind** | Luminosity | Snow |
|---|---|---|---|---|---|---|---|
| 1777825199 | 25° C | 10% | 1012.4 hPa | 0 mm | - | 635 W/m² | - |
| 1777824599 | 25° C | 11% | 1012.5 hPa | 0 mm | - | 617 W/m² | - |
| 1777823999 | 24.44° C | 11% | 1012.5 hPa | 0 mm | - | 577 W/m² | - |
| 1777823399 | 23.89° C | 12% | 1012.5 hPa | 0 mm | - | 538 W/m² | - |
| 1777822799 | 23.33° C | 12% | 1012.6 hPa | 0 mm | - | 506 W/m² | - |
| 1777822200 | 22.78° C | 14% | 1012.6 hPa | 0 mm | - | 478 W/m² | - |
| 1777821601 | 22.22° C | 13% | 1012.6 hPa | 0 mm | - | 446 W/m² | - |
| 1777820998 | 21.67° C | 13% | 1012.5 hPa | 0 mm | - | 415 W/m² | - |
| 1777820402 | 21.67° C | 12% | 1012.6 hPa | 0 mm | - | 383 W/m² | - |
| 1777819802 | 21.11° C | 12% | 1012.6 hPa | 0 mm | - | 350 W/m² | - |
| 1777819200 | 20° C | 12% | 1012.6 hPa | 0 mm | - | 316 W/m² | - |
| 1777818601 | 19.44° C | 12% | 1012.7 hPa | 0 mm | - | 285 W/m² | - |
| 1777818001 | 18.89° C | 14% | 1012.7 hPa | 0 mm | - | 257 W/m² | - |
| 1777817400 | 17.78° C | 14% | 1012.6 hPa | 0 mm | - | 223 W/m² | - |
| 1777816798 | 17.22° C | 14% | 1012.5 hPa | 0 mm | - | 188 W/m² | - |
| 1777816201 | 16.67° C | 15% | 1012.4 hPa | 0 mm | - | 163 W/m² | - |
| 1777815603 | 16.11° C | 16% | 1012.3 hPa | 0 mm | - | 134 W/m² | - |
| 1777814999 | 16.11° C | 14% | 1012 hPa | 0 mm | - | 95 W/m² | - |
| 1777814399 | 16.11° C | 14% | 1012 hPa | 0 mm | - | 19 W/m² | - |
| 1777813800 | 16.11° C | 14% | 1011.9 hPa | 0 mm | - | 14 W/m² | - |
| 1777813200 | 16.11° C | 13% | 1011.9 hPa | 0 mm | - | 11 W/m² | - |
| 1777812599 | 16.11° C | 14% | 1011.7 hPa | 0 mm | - | 5 W/m² | - |
| 1777812001 | 16.11° C | 13% | 1011.7 hPa | 0 mm | - | 0 W/m² | - |
| 1777811398 | 16.67° C | 13% | 1011.5 hPa | 0 mm | - | 0 W/m² | - |
| 1777810799 | 16.67° C | 13% | 1011.5 hPa | 0 mm | - | 0 W/m² | - |
* Rain latest hour (hover to see other rain measurements)
** Current wind speed in m/s (hover to see current wind gust speed)